Back to catalog

STARLINK-5742

AliveCommunicationsVLEO
NORAD 55583·PAYLOAD·🇺🇸 United States

Launched Feb 12, 2023 from Cape Canaveral Space Force Station

Loading…

Next Passes (next 24 hours)

TLE

FreshSource: CelesTrak SupGP

Epoch: Sep 14, 2026, 21:33 UTC

1 55583C 23020Q   26257.89840278  .00008748  00000+0  31699-3 0  2575
2 55583  43.0023  16.3124 0001500 274.5041  90.6680 15.27560240    18

Track STARLINK-5742 in real time with AllMySat

Download on the App Store